When you browse on this site, cookies collect data to enhance your experience and personalize the content and advertising you see.
Visit our Privacy Policy to learn more. By continuing to use the site, you agree to this use of cookies and data.
  • en France
  • Liste des pays
  • À 7 jours
  • Température de l'eau
  • Carte satellitaire
  • Carte météo
  • Widgets météo
  • user-avatar
    Se connecter

    Météo par heure à Pleven

    Ce jour, 22 Mars, Vendredi

    Heure Température Précipitation Vent Pression Humidité
    00:00 +8°C° 0 mm 1 m/s 756 mmHg 78%
    01:00 +8°C° 0 mm 1 m/s 756 mmHg 79%
    02:00 +7°C° 0 mm 1 m/s 756 mmHg 80%
    03:00 +7°C° 0 mm 1 m/s 756 mmHg 81%
    04:00 +7°C° 0 mm 1 m/s 756 mmHg 83%
    05:00 +7°C° 0 mm 1 m/s 756 mmHg 84%
    06:00 +7°C° 0 mm 1 m/s 756 mmHg 81%
    07:00 +8°C° 0 mm 1 m/s 756 mmHg 78%
    08:00 +8°C° 0 mm 0 m/s 756 mmHg 75%
    09:00 +10°C° 0 mm 1 m/s 756 mmHg 70%
    10:00 +12°C° 0 mm 1 m/s 755 mmHg 64%
    11:00 +14°C° 0 mm 1 m/s 755 mmHg 58%
    12:00 +14°C° 0 mm 1 m/s 755 mmHg 54%
    13:00 +15°C° 0 mm 1 m/s 754 mmHg 50%
    14:00 +16°C° 0 mm 2 m/s 754 mmHg 47%
    15:00 +16°C° 0 mm 1 m/s 753 mmHg 46%
    16:00 +16°C° 0 mm 1 m/s 753 mmHg 46%
    17:00 +16°C° 0 mm 1 m/s 752 mmHg 46%
    18:00 +15°C° 0 mm 1 m/s 753 mmHg 51%
    19:00 +14°C° 0 mm 1 m/s 753 mmHg 55%
    20:00 +11°C° 0 mm 0 m/s 753 mmHg 60%
    21:00 +12°C° 0 mm 1 m/s 753 mmHg 61%
    22:00 +11°C° 0 mm 1 m/s 753 mmHg 63%
    23:00 +11°C° 0 mm 1 m/s 753 mmHg 65%

    Demain, 23 Mars, Samedi

    Heure Température Précipitation Vent Pression Humidité
    00:00 +11°C° 0 mm 1 m/s 753 mmHg 65%
    01:00 +10°C° 0 mm 1 m/s 753 mmHg 66%
    02:00 +10°C° 0 mm 1 m/s 753 mmHg 67%
    03:00 +10°C° 0 mm 1 m/s 753 mmHg 67%
    04:00 +9°C° 0 mm 1 m/s 753 mmHg 67%
    05:00 +9°C° 0 mm 1 m/s 753 mmHg 67%
    06:00 +10°C° 0 mm 1 m/s 753 mmHg 65%
    07:00 +10°C° 0 mm 1 m/s 753 mmHg 63%
    08:00 +11°C° 0 mm 1 m/s 753 mmHg 61%
    09:00 +13°C° 0 mm 1 m/s 753 mmHg 56%
    10:00 +14°C° 0 mm 1 m/s 752 mmHg 52%
    11:00 +16°C° 0 mm 1 m/s 752 mmHg 47%
    12:00 +17°C° 0 mm 2 m/s 751 mmHg 45%
    13:00 +17°C° 0 mm 2 m/s 751 mmHg 44%
    14:00 +18°C° 0 mm 2 m/s 750 mmHg 42%
    15:00 +18°C° 0 mm 2 m/s 750 mmHg 43%
    16:00 +18°C° 0 mm 2 m/s 750 mmHg 43%
    17:00 +18°C° 0 mm 2 m/s 749 mmHg 44%
    18:00 +17°C° 0 mm 2 m/s 750 mmHg 48%
    19:00 +15°C° 0 mm 2 m/s 750 mmHg 53%
    20:00 +14°C° 0 mm 2 m/s 750 mmHg 57%
    21:00 +13°C° 0 mm 2 m/s 750 mmHg 58%
    22:00 +13°C° 0 mm 2 m/s 751 mmHg 59%
    23:00 +12°C° 0 mm 2 m/s 751 mmHg 59%

    Après-demain, 24 Mars, Dimanche

    Heure Température Précipitation Vent Pression Humidité
    00:00 +12°C° 0 mm 1 m/s 751 mmHg 61%
    01:00 +11°C° 0 mm 1 m/s 751 mmHg 63%
    02:00 +11°C° 0 mm 1 m/s 751 mmHg 66%
    03:00 +10°C° 0 mm 1 m/s 751 mmHg 66%
    04:00 +9°C° 0 mm 1 m/s 751 mmHg 67%
    05:00 +9°C° 0 mm 1 m/s 751 mmHg 68%
    06:00 +9°C° 0 mm 1 m/s 751 mmHg 65%
    07:00 +10°C° 0 mm 1 m/s 751 mmHg 63%
    08:00 +10°C° 0 mm 1 m/s 751 mmHg 61%
    09:00 +12°C° 0 mm 1 m/s 751 mmHg 56%
    10:00 +13°C° 0 mm 1 m/s 751 mmHg 51%
    11:00 +15°C° 0 mm 1 m/s 751 mmHg 47%
    12:00 +15°C° 0 mm 1 m/s 751 mmHg 44%
    13:00 +16°C° 0 mm 2 m/s 750 mmHg 41%
    14:00 +17°C° 0 mm 2 m/s 750 mmHg 38%
    15:00 +18°C° 0 mm 1 m/s 749 mmHg 38%
    16:00 +18°C° 0 mm 1 m/s 749 mmHg 38%
    17:00 +18°C° 0 mm 1 m/s 748 mmHg 38%
    18:00 +16°C° 0 mm 1 m/s 749 mmHg 42%
    19:00 +14°C° 0 mm 1 m/s 749 mmHg 46%
    20:00 +13°C° 0 mm 1 m/s 749 mmHg 50%
    21:00 +12°C° 0 mm 1 m/s 749 mmHg 52%
    22:00 +12°C° 0 mm 1 m/s 749 mmHg 53%
    23:00 +10°C° 0 mm 2 m/s 749 mmHg 54%

    25 Mars, Lundi

    Heure Température Précipitation Vent Pression Humidité
    00:00 +10°C° 0 mm 2 m/s 749 mmHg 54%
    01:00 +10°C° 0 mm 2 m/s 749 mmHg 54%
    02:00 +9°C° 0 mm 2 m/s 748 mmHg 54%
    03:00 +9°C° 0 mm 2 m/s 748 mmHg 54%
    04:00 +9°C° 0 mm 2 m/s 748 mmHg 54%
    05:00 +9°C° 0 mm 2 m/s 748 mmHg 54%
    06:00 +10°C° 0 mm 2 m/s 748 mmHg 54%
    07:00 +12°C° 0 mm 2 m/s 748 mmHg 53%
    08:00 +11°C° 0 mm 3 m/s 748 mmHg 53%
    09:00 +13°C° 0 mm 3 m/s 747 mmHg 51%
    10:00 +15°C° 0 mm 4 m/s 747 mmHg 49%
    11:00 +17°C° 0 mm 5 m/s 747 mmHg 46%
    12:00 +19°C° 0 mm 5 m/s 746 mmHg 45%
    13:00 +19°C° 0 mm 6 m/s 746 mmHg 43%
    14:00 +20°C° 0 mm 6 m/s 745 mmHg 42%
    15:00 +19°C° 0 mm 6 m/s 745 mmHg 43%
    16:00 +19°C° 0 mm 6 m/s 745 mmHg 43%
    17:00 +17°C° 0 mm 6 m/s 745 mmHg 44%
    18:00 +15°C° 0 mm 5 m/s 745 mmHg 51%
    19:00 +13°C° 0 mm 3 m/s 746 mmHg 59%
    20:00 +12°C° 0 mm 2 m/s 746 mmHg 66%
    21:00 +10°C° 0 mm 2 m/s 746 mmHg 64%
    22:00 +10°C° 0 mm 3 m/s 747 mmHg 63%
    23:00 +9°C° 0 mm 3 m/s 747 mmHg 62%

    26 Mars, Mardi

    Heure Température Précipitation Vent Pression Humidité
    00:00 +9°C° 0 mm 3 m/s 747 mmHg 61%
    01:00 +8°C° 0 mm 3 m/s 747 mmHg 61%
    02:00 +8°C° 0 mm 3 m/s 747 mmHg 61%
    03:00 +7°C° 0 mm 3 m/s 747 mmHg 64%
    04:00 +7°C° 0 mm 3 m/s 747 mmHg 67%
    05:00 +7°C° 0 mm 2 m/s 746 mmHg 70%
    06:00 +6°C° 0 mm 4 m/s 747 mmHg 66%
    07:00 +7°C° 0 mm 5 m/s 747 mmHg 62%
    08:00 +8°C° 0 mm 6 m/s 747 mmHg 58%
    09:00 +8°C° 0 mm 7 m/s 746 mmHg 53%
    10:00 +9°C° 0 mm 8 m/s 746 mmHg 47%
    11:00 +10°C° 0 mm 9 m/s 746 mmHg 42%
    12:00 +10°C° 0 mm 9 m/s 746 mmHg 40%
    13:00 +11°C° 0 mm 9 m/s 745 mmHg 39%
    14:00 +11°C° 0 mm 9 m/s 745 mmHg 37%
    15:00 +10°C° 0 mm 9 m/s 745 mmHg 37%
    16:00 +10°C° 0 mm 9 m/s 745 mmHg 37%
    17:00 +9°C° 0 mm 8 m/s 745 mmHg 37%
    18:00 +8°C° 0 mm 7 m/s 745 mmHg 38%
    19:00 +7°C° 0 mm 6 m/s 746 mmHg 40%
    20:00 +6°C° 0 mm 5 m/s 746 mmHg 41%
    21:00 +5°C° 0.2 mm 4 m/s 747 mmHg 48%
    22:00 +5°C° 0.2 mm 3 m/s 747 mmHg 54%
    23:00 +4°C° 0.2 mm 3 m/s 747 mmHg 61%

    27 Mars, Mercredi

    Heure Température Précipitation Vent Pression Humidité
    00:00 +4°C° 0.8 mm 3 m/s 747 mmHg 68%
    01:00 +4°C° 0.8 mm 3 m/s 748 mmHg 74%
    02:00 +3°C° 0.8 mm 3 m/s 748 mmHg 80%
    03:00 +3°C° 1.2 mm 3 m/s 748 mmHg 83%
    04:00 +3°C° 1.2 mm 3 m/s 748 mmHg 85%
    05:00 +2°C° 1.2 mm 3 m/s 748 mmHg 88%
    06:00 +2°C° 1.4 mm 3 m/s 748 mmHg 90%
    07:00 +2°C° 1.4 mm 3 m/s 749 mmHg 91%
    08:00 +2°C° 1.4 mm 3 m/s 749 mmHg 93%
    09:00 +3°C° 1.8 mm 2 m/s 749 mmHg 93%
    10:00 +3°C° 1.8 mm 2 m/s 750 mmHg 93%
    11:00 +3°C° 1.8 mm 2 m/s 750 mmHg 93%
    12:00 +3°C° 0.6 mm 2 m/s 750 mmHg 92%
    13:00 +4°C° 0.6 mm 2 m/s 750 mmHg 92%
    14:00 +4°C° 0.6 mm 2 m/s 750 mmHg 91%
    15:00 +4°C° 0.3 mm 2 m/s 750 mmHg 91%
    16:00 +4°C° 0.3 mm 2 m/s 750 mmHg 91%
    17:00 +3°C° 0.3 mm 3 m/s 750 mmHg 91%
    18:00 +4°C° 0 mm 2 m/s 751 mmHg 91%
    19:00 +3°C° 0 mm 2 m/s 751 mmHg 90%
    20:00 +3°C° 0 mm 2 m/s 752 mmHg 90%
    21:00 +3°C° 0 mm 2 m/s 752 mmHg 88%
    22:00 +3°C° 0 mm 2 m/s 753 mmHg 86%
    23:00 +3°C° 0 mm 2 m/s 753 mmHg 85%
    Voir plus